User: anonymous   Login
Location: CNYAC Observatory
(43.2150°N, 74.9500°W)
Time: 00:20:55
(UTC-04:00)
Language:

Meteor 1-22 Rocket - Orbit

View from above orbital plane
View from above orbital plane
View from above satellite
View from above satellite

Ground track
Ground track

The orbit data is extracted from the following two-line orbital elements,

1 08294U 75087B   16182.53315629  .00000188  00000-0  97634-4 0  9992
2 08294  81.2179   5.2581 0105283 314.1233  45.1310 14.08592045 95343
Epoch (UTC): 30 June 2016 12:47:44
Eccentricity: 0.0105283
inclination: 81.2179°
perigee height: 788 km
apogee height: 940 km
right ascension of ascending node: 5.2581°
argument of perigee: 314.1233°
revolutions per day: 14.08592045
mean anomaly at epoch: 45.1310°
orbit number at epoch: 9534

The dashed part of the orbit path shows where the satellite is in the earth's shadow,  

DLR